Home > Weather > Gdańsk > Past weeks

Flag for Poland Weather for the Past 2 Weeks in Gdańsk, Poland

Now
36 °F

Partly sunny.


Feels Like: 29 °F
Forecast: 33 / 40 °F
Wind: 8 mph from West

Location: Gdansk-Rebiechowo

Current Time: Feb 12, 2016 at 9:28:57 AM

Latest Report: Feb 12, 2016 at 9:00 AM


Visibility: N/A

Pressure: 29.50 "Hg

Humidity: 93%

Dew point: 34 °F

Location of GdańskLocation

Historic Weather in Gdańsk — Graph

°F

Gdańsk Temperature Yesterday

Maximum temperature yesterday: 37 °F (at 12:00 PM)
Minimum temperature yesterday: 28 °F (at 1:00 AM)
Average temperature yesterday: 34 °F

High & Low Weather Summary for the Past Weeks

 TemperatureHumidityPressure
High48 °F (Feb 7, 1:30 PM)100% (Feb 4, 2:00 AM)30.09 "Hg (Feb 4, 2:00 AM)
Low28 °F (Feb 11, 1:00 AM)53% (Feb 9, 3:30 PM)29.03 "Hg (Feb 10, 3:30 AM)
Average39 °F82%29.63 "Hg
* Reported Jan 28 8:00 AM — Feb 12 8:00 AM, Gdańsk, Weather by CustomWeather, © 2016

Note: Actual official high and low records may vary slightly from our data, if they occured in-between our weather recording intervals... More about our weather records

Advertising

Gdańsk Weather History for the Previous 24 Hours

 ConditionsComfort  
Time TempWeatherWind HumidityBarometerVisibility
8:00 AM
Fri, Feb 12
34 °FScattered clouds.8 mph93%29.50 "HgN/A
7:30 AM34 °FPassing clouds.7 mph93%29.50 "HgN/A
7:00 AM34 °FPassing clouds.6 mph100%29.50 "HgN/A
6:30 AM34 °FPassing clouds.6 mph100%29.47 "HgN/A
6:00 AM34 °FLow clouds.8 mph100%29.47 "HgN/A
5:30 AM34 °FPassing clouds.6 mph93%29.47 "HgN/A
5:00 AM36 °FPassing clouds.6 mph93%29.47 "HgN/A
4:30 AM36 °FLight rain. Passing clouds.6 mph93%29.47 "HgN/A
4:00 AM36 °FPartly cloudy.6 mph93%29.47 "HgN/A
3:30 AM36 °FLow clouds.6 mph93%29.47 "HgN/A
3:00 AM36 °FLow clouds.6 mph93%29.47 "HgN/A
2:30 AM36 °FLow clouds.5 mph93%29.47 "HgN/A
2:00 AM36 °FLow clouds.5 mph93%29.47 "HgN/A
1:30 AM36 °FPassing clouds.7 mph93%29.47 "HgN/A
1:00 AM36 °FPassing clouds.6 mph93%29.47 "HgN/A
12:30 AM36 °FPassing clouds.7 mph93%29.47 "HgN/A
12:00 AM36 °FPassing clouds.7 mph87%29.47 "HgN/A
10:00 PM
Thu, Feb 11
36 °FPassing clouds.5 mph87%29.47 "HgN/A
9:30 PM36 °FPassing clouds.3 mph87%29.47 "HgN/A
9:00 PM36 °FPassing clouds.6 mph87%29.45 "HgN/A
8:30 PM36 °FPassing clouds.6 mph87%29.45 "HgN/A
8:00 PM36 °FPassing clouds.6 mph87%29.45 "HgN/A
7:30 PM36 °FPassing clouds.3 mph87%29.45 "HgN/A
7:00 PM36 °FPassing clouds.6 mph87%29.45 "HgN/A
6:30 PM37 °FPassing clouds.6 mph81%29.45 "HgN/A
6:00 PM37 °FPassing clouds.3 mph75%29.45 "HgN/A
5:30 PM37 °FPassing clouds.5 mph75%29.45 "HgN/A
5:00 PM37 °FPassing clouds.6 mph65%29.45 "HgN/A
4:30 PM37 °FPartly sunny.7 mph70%29.42 "HgN/A
4:00 PM37 °FPartly sunny.6 mph75%29.42 "HgN/A
3:30 PM37 °FPartly sunny.6 mph75%29.42 "HgN/A
3:00 PM37 °FPartly sunny.7 mph81%29.42 "HgN/A
2:30 PM37 °FPartly sunny.8 mph81%29.42 "HgN/A
2:00 PM37 °FPartly sunny.8 mph81%29.42 "HgN/A
1:30 PM37 °FPartly sunny.7 mph81%29.39 "HgN/A
1:00 PM37 °FPartly sunny.6 mph87%29.39 "HgN/A
12:30 PM37 °FPartly sunny.5 mph87%29.39 "HgN/A
12:00 PM37 °FBroken clouds.6 mph87%29.39 "HgN/A
11:30 AM36 °FPartly sunny.6 mph93%29.39 "Hg5 mi
11:00 AM36 °FPartly sunny.3 mph93%29.39 "Hg5 mi
10:30 AM36 °FBroken clouds.5 mph93%29.39 "Hg5 mi
10:00 AM34 °FBroken clouds.3 mph93%29.36 "HgN/A
9:30 AM34 °FBroken clouds.3 mph93%29.36 "HgN/A
9:00 AM34 °FBroken clouds.2 mph93%29.36 "Hg6 mi
Weather by CustomWeather, © 2016

See weather overviewHow to use our weather pages